User: anonymous   Login
Location: Wilsall
(45.9940°N, 110.6590°W)
Time: 15:09:14
(UTC-06:00)
Language:

GP-B - Orbit

View from above orbital plane
View from above orbital plane
View from above satellite
View from above satellite

Ground track
Ground track

The orbit data is extracted from the following two-line orbital elements,

1 28230U 04014A   17295.53335177  .00000157  00000-0  19222-4 0  9995
2 28230  89.8373 119.5741 0003296  85.7933 274.3667 14.78572688727915
Epoch (UTC): 22 October 2017 12:48:01
Eccentricity: 0.0003296
inclination: 89.8373°
perigee height: 631 km
apogee height: 636 km
right ascension of ascending node: 119.5741°
argument of perigee: 85.7933°
revolutions per day: 14.78572688
mean anomaly at epoch: 274.3667°
orbit number at epoch: 72791

The dashed part of the orbit path shows where the satellite is in the earth's shadow,  

DLR